Date,TemperatureHighF,TemperatureAvgF,TemperatureLowF,DewpointHighF,DewpointAvgF,DewpointLowF,HumidityHigh,HumidityAvg,HumidityLow,PressureMaxIn,PressureMinIn,WindSpeedMaxMPH,WindSpeedAvgMPH,GustSpeedMaxMPH,PrecipitationSumIn
2013-1-1,60.8,53.2,48.0,51.8,47.9,43.8,91,83,62,30.16,29.96,18,3,18,0.00
2013-1-2,54.9,47.4,40.8,51.9,44.4,35.9,94,89,82,30.19,29.91,24,8,25,0.34
2013-1-3,43.2,40.9,33.8,38.5,35.7,31.0,90,82,74,30.26,30.13,27,7,27,0.07
2013-1-4,54.5,39.5,28.8,34.2,30.3,27.0,94,72,40,30.33,30.19,21,3,21,0.00
2013-1-5,52.9,39.0,26.4,36.2,28.7,22.2,87,68,39,30.40,30.25,14,3,14,0.00
2013-1-6,50.4,45.2,35.8,44.4,39.6,31.1,92,81,63,30.30,30.07,10,2,10,0.03
2013-1-7,54.1,44.9,38.3,43.8,36.7,33.5,92,73,54,30.46,30.13,28,7,28,0.00
2013-1-8,61.9,48.9,39.6,51.0,43.0,35.0,92,80,65,30.46,30.34,22,5,22,0.00
2013-1-9,70.3,56.1,42.4,57.4,50.7,40.5,95,83,63,30.44,30.36,10,2,10,0.00
2013-1-10,61.0,53.3,46.8,53.5,43.4,34.7,95,71,39,30.53,30.40,24,8,25,0.00
2013-1-11,72.9,58.5,47.5,60.9,52.9,39.8,95,83,64,30.45,30.14,19,5,19,0.11
2013-1-12,69.1,59.6,53.2,62.3,56.8,51.8,95,91,76,30.20,30.09,8,2,8,0.01
2013-1-13,70.5,61.5,54.9,61.8,58.2,53.8,96,89,73,30.19,29.94,8,3,8,0.00
2013-1-14,72.9,63.2,55.9,63.7,59.3,54.5,96,88,72,30.22,30.13,13,3,13,0.00
2013-1-15,67.5,57.4,52.5,60.2,54.9,50.8,96,91,75,30.20,30.07,9,3,0,0.15
2013-1-16,71.4,61.4,52.7,63.9,58.2,50.7,96,90,74,30.06,29.96,5,2,0,0.00
2013-1-17,71.4,55.3,42.1,63.1,52.9,41.0,96,92,75,29.99,29.80,17,4,0,0.00
2013-1-18,48.7,41.3,34.2,41.3,33.8,29.3,96,76,51,30.53,29.92,11,4,0,0.00
2013-1-19,60.1,45.0,32.0,46.9,37.9,28.5,93,77,59,30.50,30.18,6,2,0,0.00
2013-1-20,64.0,50.1,40.6,49.7,44.5,37.9,95,82,58,30.17,29.98,4,1,0,0.00
2013-1-21,64.8,51.5,37.4,51.3,43.1,33.6,88,74,57,30.07,29.87,6,2,0,0.00
2013-1-22,51.6,37.8,29.1,39.0,15.8,6.9,69,42,23,30.29,29.92,10,2,10,0.00
2013-1-23,43.5,32.8,26.8,31.6,14.4,3.0,78,49,25,30.39,30.14,12,4,12,0.00
2013-1-24,48.4,37.7,26.6,39.8,23.1,7.4,78,56,36,30.53,29.98,30,10,30,0.00
2013-1-25,40.6,31.4,23.2,32.5,22.4,7.7,95,71,45,30.53,30.09,16,6,16,0.20
2013-1-26,42.1,33.9,29.3,34.0,30.1,26.7,95,86,73,30.40,30.11,21,7,21,0.00
2013-1-27,44.4,35.1,29.3,36.8,28.7,20.6,99,80,47,30.58,30.38,26,7,26,0.03
2013-1-28,59.0,44.5,32.0,56.6,42.1,30.2,95,91,77,30.53,30.27,13,3,13,0.00
2013-1-29,77.7,59.6,50.9,70.3,55.3,47.5,95,86,65,30.27,30.13,10,2,10,0.02
2013-1-30,71.1,63.1,54.3,61.4,58.0,52.3,98,84,71,30.17,29.63,16,5,16,0.02
2013-1-31,65.5,54.3,43.0,61.1,38.2,23.3,90,57,28,30.08,29.50,20,7,20,0.26